Goteborg Save AFB, Sweden

5:05 AM CEST on May 22, 2018 (GMT +0200)
Save Air Base

Weather History for ESGP - February, 2013

Change the Weather History Date:

Saturday, February 2, 2013

  Actual Average Record
Temperature  
Mean Temperature 28 °F -  
Max Temperature 33 °F 34 °F - ()
Min Temperature 23 °F 24 °F - ()
Degree Days  
Heating Degree Days 37    
Moisture  
Dew Point 25 °F    
Average Humidity 87    
Maximum Humidity 100    
Minimum Humidity 75    
Precipitation  
Precipitation 0.00 in 0.05 in - ()
Sea Level Pressure  
Sea Level Pressure 29.48 in    
Wind  
Wind Speed 3 mph ()    
Max Wind Speed 7 mph    
Max Gust Speed -    
Visibility 6.2 miles    
Events      
T = Trace of Precipitation, MM = Missing Value Source: Averaged Metar Reports

Daily Weather History Graph

Daily Weather History Graph

Search for Another Location

Airport or City:

Astronomy

Feb. 02, 2013 Rise Set
Actual Time 8:12 AM CET 4:40 PM CET
Civil Twilight 7:29 AM CET 5:23 PM CET
Nautical Twilight 6:42 AM CET 6:10 PM CET
Astronomical Twilight 5:56 AM CET 6:56 PM CET
Moon No Moon Rise 9:37 AM CET (2/2)
Length of Visible Light 9h 54m
Length of Day
8h 27m
Waning Gibbous, 62% of the Moon is Illuminated
Feb 2
Waning Gibbous
Feb 3
Last Quarter
Feb 10
New
Feb 17
First Quarter
Feb 25
Full

Hourly Weather History & Observations

Time (CET) Temp. Windchill Dew Point Humidity Pressure Visibility Wind Dir Wind Speed Gust Speed Precip Events Conditions
12:20 AM 28.4 °F 24.6 °F 24.8 °F 86% 29.33 in 6.2 mi ENE 3.5 mph - N/A   Overcast
12:50 AM 28.4 °F 24.6 °F 24.8 °F 86% 29.33 in 6.2 mi NE 3.5 mph - N/A   Overcast
1:20 AM 28.4 °F 23.3 °F 24.8 °F 86% 29.33 in 6.2 mi NE 4.6 mph - N/A   Overcast
1:50 AM 28.4 °F 21.2 °F 26.6 °F 93% 29.36 in - NE 6.9 mph - N/A   Clear
2:20 AM 28.4 °F 21.2 °F 26.6 °F 93% 29.36 in 6.2 mi NE 6.9 mph - N/A   Overcast
2:50 AM 28.4 °F 22.2 °F 24.8 °F 86% 29.36 in 6.2 mi NNE 5.8 mph - N/A   Overcast
3:20 AM 28.4 °F 23.3 °F 24.8 °F 86% 29.36 in 6.2 mi NNE 4.6 mph - N/A   Overcast
3:50 AM 28.4 °F 23.3 °F 24.8 °F 86% 29.36 in 6.2 mi North 4.6 mph - N/A   Overcast
4:20 AM 28.4 °F 23.3 °F 24.8 °F 86% 29.36 in 6.2 mi NE 4.6 mph - N/A   Overcast
4:50 AM 28.4 °F 23.3 °F 24.8 °F 86% 29.36 in 6.2 mi NNE 4.6 mph - N/A   Overcast
5:20 AM 28.4 °F 22.2 °F 24.8 °F 86% 29.36 in 6.2 mi North 5.8 mph - N/A   Overcast
5:50 AM 28.4 °F 24.6 °F 24.8 °F 86% 29.36 in 6.2 mi NNE 3.5 mph - N/A   Overcast
6:20 AM 26.6 °F 21.2 °F 24.8 °F 93% 29.36 in 6.2 mi North 4.6 mph - N/A   Overcast
6:50 AM 26.6 °F 21.2 °F 24.8 °F 93% 29.39 in 6.2 mi NNE 4.6 mph - N/A   Overcast
7:20 AM 26.6 °F 22.6 °F 24.8 °F 93% 29.39 in 6.2 mi NE 3.5 mph - N/A   Overcast
7:50 AM 26.6 °F - 24.8 °F 93% 29.39 in 6.2 mi North 2.3 mph - N/A   Overcast
8:20 AM 26.6 °F - 24.8 °F 93% 29.39 in 6.2 mi North 2.3 mph - N/A   Scattered Clouds
8:50 AM 24.8 °F - 23.0 °F 93% 29.42 in 6.2 mi Calm Calm - N/A   Partly Cloudy
9:20 AM 24.8 °F - 23.0 °F 93% 29.42 in 6.2 mi Calm Calm - N/A   Partly Cloudy
9:50 AM 26.6 °F - 24.8 °F 93% 29.44 in 6.2 mi Calm Calm - N/A   Partly Cloudy
10:20 AM 28.4 °F - 26.6 °F 93% 29.44 in 6.2 mi Calm Calm - N/A   Partly Cloudy
10:50 AM 28.4 °F 24.6 °F 26.6 °F 93% 29.47 in 6.2 mi South 3.5 mph - N/A   Partly Cloudy
11:20 AM 30.2 °F 26.7 °F 26.6 °F 86% 29.47 in 6.2 mi South 3.5 mph - N/A   Partly Cloudy
11:50 AM 32.0 °F - 26.6 °F 80% 29.47 in 6.2 mi Variable 1.2 mph - N/A   Partly Cloudy
12:20 PM 32.0 °F 28.7 °F 26.6 °F 80% 29.47 in 6.2 mi SSW 3.5 mph - N/A   Partly Cloudy
12:50 PM 33.8 °F 29.6 °F 26.6 °F 75% 29.47 in 6.2 mi SW 4.6 mph - N/A   Partly Cloudy
1:20 PM 33.8 °F 28.6 °F 26.6 °F 75% 29.47 in - SSW 5.8 mph - N/A   Clear
1:50 PM 33.8 °F 27.7 °F 26.6 °F 75% 29.50 in - West 6.9 mph - N/A   Clear
2:20 PM 32.0 °F 25.6 °F 26.6 °F 80% 29.50 in - WSW 6.9 mph - N/A   Clear
2:50 PM 33.8 °F 29.6 °F 26.6 °F 75% 29.50 in - WSW 4.6 mph - N/A   Clear
3:20 PM 33.8 °F 28.6 °F 26.6 °F 75% 29.53 in - WSW 5.8 mph - N/A   Clear
3:50 PM 32.0 °F 28.7 °F 28.4 °F 87% 29.53 in - SSW 3.5 mph - N/A   Clear
4:20 PM 33.8 °F 29.6 °F 26.6 °F 75% 29.56 in - West 4.6 mph - N/A   Clear
4:50 PM 33.8 °F 29.6 °F 26.6 °F 75% 29.56 in 6.2 mi West 4.6 mph - N/A   Mostly Cloudy
5:20 PM 32.0 °F 28.7 °F 26.6 °F 80% 29.56 in 6.2 mi West 3.5 mph - N/A   Mostly Cloudy
5:50 PM 30.2 °F - 26.6 °F 86% 29.59 in 6.2 mi WSW 2.3 mph - N/A   Partly Cloudy
6:20 PM 30.2 °F - 26.6 °F 86% 29.59 in - West 2.3 mph - N/A   Clear
6:50 PM 30.2 °F 26.7 °F 26.6 °F 86% 29.59 in - West 3.5 mph - N/A   Clear
7:20 PM 28.4 °F - 26.6 °F 93% 29.59 in - Calm Calm - N/A   Clear
7:50 PM 26.6 °F - 24.8 °F 93% 29.62 in - NNW 2.3 mph - N/A   Clear
8:20 PM 24.8 °F - 23.0 °F 93% 29.62 in - Calm Calm - N/A   Clear
8:50 PM 24.8 °F - 23.0 °F 93% 29.65 in - Calm Calm - N/A   Clear
9:20 PM 24.8 °F - 23.0 °F 93% 29.65 in - ESE 2.3 mph - N/A   Clear
9:50 PM 23.0 °F - 21.2 °F 93% 29.65 in - Calm Calm - N/A   Clear
10:20 PM 23.0 °F - 23.0 °F 100% 29.65 in - Calm Calm - N/A   Clear
10:50 PM 23.0 °F - 21.2 °F 93% 29.68 in - Calm Calm - N/A   Clear
11:20 PM 23.0 °F - 21.2 °F 93% 29.68 in - Calm Calm - N/A   Clear
11:50 PM 23.0 °F - 21.2 °F 93% 29.68 in - Calm Calm - N/A   Clear